User: anonymous   Login
Location: Peebles
(55.6412°N, 3.1714°W)
Time: 08:47:13
(UTC+00:00)
Language:

NOAA 17 DEB - Orbit

View from above orbital plane
View from above orbital plane
View from above satellite
View from above satellite

Ground track
Ground track

The orbit data is extracted from the following two-line orbital elements,

1 48731U 02032BQ  22333.79218352  .00002605  00000-0  11879-2 0  9991
2 48731  98.7507 277.9509 0046668 126.7867 233.7607 14.21892153 87679
Epoch (UTC): 29 November 2022 19:00:44
Eccentricity: 0.0046668
inclination: 98.7507°
perigee height: 785 km
apogee height: 852 km
right ascension of ascending node: 277.9509°
argument of perigee: 126.7867°
revolutions per day: 14.21892153
mean anomaly at epoch: 233.7607°
orbit number at epoch: 8767

The dashed part of the orbit path shows where the satellite is in the earth's shadow,  

DLR